Showing default

SYNCOM 1, 553

Orbit data source: Space-Track

SYNCOM 1, 553 is a payload satellite owned by GSFC (US) that was launched on Thu, 14 Feb 1963 UTC via a THOR DELTA B launch vehicle from the Air Force Eastern Test Range (AFETR). Payload-class satellites include a variety of spacecraft equipped with specific instruments for various scientific and technological missions. These include communications satellites like Starlink; space stations such as the ISS; scientific satellites like the Hubble; Earth observation satellites from companies like Planet Labs, Umbra, and HawkEye 360; GPS; miniature CubeSats for education and research; and military/defense satellites.

Loading next visibility...
Identifier
553, 1963-004A
Orbit
Active
Last TLE update
2 weeks ago
Origin
Manufacturer
Hughes
Mission
Non-operational Civil Communications
Bus & Motor
HS-301, TE-M-375
Mass
68 kg wet, ~27 kg dry
Launch date (UTC)
1963-02-14 (62 years ago)
Launch vehicle
THOR DELTA B
Launch site
Air Force Eastern Test Range (AFETR)
Object type
Payload
Rocket body
Debris
Shape & HBR
Cyl, 0.71 m
Radar Cross Section
0.415 m²

Expand to show TLE details & history

TLE from 2 weeks ago
0 SYNCOM 1
1 00553U 63004A   25120.71661705 -.00000088  00000-0  00000-0 0  9996
2 00553  27.5701 281.2360 0788262 188.5400 169.9881  1.16483653 31258
Epoch: 2025-04-30T17:11Z
Definitive object data (Epoch: 2025-04-30T17:11:55.713Z)
Latitude
-0°
Longitude
164.30156°
Altitude
34,737.284 km
Speed
2.99 km/s
True Right ascension
18h 44m 43s
True Declination
0° 00' 00"
Sunlit
Object was in daylight at TLE epoch
Visualization TLE readout
Latitude
-23.00735°
Longitude
38.40181°
Altitude
29,677.666 km
Speed
3.416 km/s
Apparent Right ascension
09h 47m 24s
Apparent Declination
-29° 21' 29"
Sunlit
Object is in daylight
Visualization observer readout
Local Sidereal Time
15:20:41
Azimuth
243.001° WSW
Elevation
-13.701°
Doppler factor
1
Orbital elements
Apogee altitude
34,786.024 km
Perigee altitude
28,770.571 km
Semi-major axis
38,156.435 km
Eccentricity
0.0788262
Inclination
27.5701°
RAAN
281.236°
Arg. of periapsis
188.54°
True anomaly
171.41901°
Mean anomaly
169.9881°
Eccentric anomaly
170.71667°
Mean motion
0.2912 °/min
BSTAR
Unknown
Orbital period
1236.26 mins
Loading maneuver chart data...
Loading SW <> Apogee altitude chart data...
Loading historical data...
Loading historical data...
Loading historical data...
Loading historical data...
Loading historical data...
Loading historical data...
Loading historical data...
Other satellites on launch #4 in the year 1963 (1963-02-14 UTC)

SYNCOM 1 Visibility forecast

Observer location: undefined°, undefined°

Span
Click to sort rows by Start time (UTC) header in descending order
Start Az.
Max El. time (UTC)
Max El. Az.
Max El.
End time (UTC)
End Az.
1068 mins2025-05-13 13:08:00.697Z241.934° WSW2025-05-13 21:58:00.697Z259.446° W32.42°2025-05-14 06:56:00.697Z188.348° SSW
|